RH
88 95 98 99 97 97 93 88 92 96 96 96 95 94 92 90 88 86 82 77 73 70 66 66 66 70 75 78 80 80 79 79 82 87 89 87 83 80 79 80 79 77 77 76 75 75 77 83 87 84 78 74 74 75 78 84 84 79 79 79 80 78 74 75 76 77 83 84 81 86 91 92 91 88 89 93 94 92 88 88 89 89 91 94 93
89 92 97 99 100 99 98 97 97 97 98 97 96 98 97 95 93 90 86 84 82 80 77 77 76 76 77 81 84 84 82 82 82 81 82 82 79 78 78 79 79 78 77 78 77 76 76 80 82 79 74 71 75 79 81 86 88 87 86 82 80 78 77 78 76 74 82 89 86 87 93 94 92 90 91 92 94 93 91 88 85 86 92 94 92
94 95 99 100 99 98 98 99 98 96 98 99 98 99 98 99 98 94 91 92 91 90 88 85 83 82 82 83 83 80 79 77 74 72 73 73 74 76 78 78 78 79 80 81 82 82 79 79 81 82 78 76 81 86 84 84 87 89 88 85 83 79 75 78 81 78 78 88 95 93 92 94 94 93 92 92 92 93 92 89 85 86 91 93 92
100 99 100 99 95 94 97 99 96 92 93 96 98 98 99 100 100 97 97 98 96 93 92 88 85 85 83 82 77 72 72 72 72 75 77 79 80 80 80 80 80 80 82 84 86 87 85 83 85 87 85 85 86 83 82 81 81 83 87 87 84 81 76 75 82 82 74 79 94 98 95 97 97 91 87 89 90 92 93 90 88 88 91 93 92
100 100 100 99 95 95 98 100 96 91 93 96 98 98 97 97 97 96 94 93 92 89 87 83 79 78 77 76 73 69 70 74 77 82 86 88 87 84 81 79 79 79 82 87 88 89 90 89 87 88 87 86 82 77 79 81 79 80 85 86 85 82 80 76 79 83 77 74 83 94 96 96 94 85 80 85 88 91 94 92 90 92 93 93 91
100 100 100 100 99 99 99 98 95 94 97 97 98 97 95 93 92 92 91 87 86 82 77 76 73 73 76 75 75 75 78 83 86 87 89 92 91 89 83 77 76 77 79 84 88 89 92 92 90 91 90 85 81 80 83 83 80 80 84 86 86 83 83 81 80 82 81 77 77 85 88 83 83 82 80 84 87 91 95 94 92 94 95 93 91
100 100 100 100 100 100 100 98 95 97 100 98 99 99 98 96 93 93 94 90 87 84 81 84 85 84 86 87 87 89 90 93 94 93 92 93 94 91 85 79 76 78 81 83 86 88 92 94 93 94 94 88 84 83 82 81 78 77 78 82 84 84 84 82 79 81 83 81 79 84 84 77 80 83 78 79 86 91 96 97 94 93 94 95 91
100 100 100 101 100 99 100 99 96 98 102 100 100 100 99 100 99 98 98 95 91 91 91 94 95 95 96 97 98 98 98 97 96 96 96 94 95 93 90 85 80 80 83 84 85 90 95 97 94 94 96 91 88 84 81 79 77 74 73 78 84 86 84 79 77 82 84 79 76 82 83 77 80 86 80 77 80 85 92 96 96 94 94 96 93
100 101 100 100 100 100 100 100 97 98 99 96 96 97 97 99 100 100 100 99 96 96 97 96 97 98 99 100 100 99 99 99 97 96 96 96 97 98 96 92 85 83 85 84 84 88 95 98 96 95 96 93 89 85 81 77 73 71 72 77 84 87 84 78 77 81 84 81 76 80 85 81 83 90 87 82 81 83 87 89 89 93 95 96 95
100 100 100 100 100 100 100 99 97 96 95 93 93 97 100 100 100 101 100 100 100 99 100 100 99 99 100 100 100 100 100 98 96 95 95 97 98 98 98 95 91 89 89 86 83 85 89 93 94 96 95 92 91 88 85 80 75 75 77 79 84 87 85 81 80 81 82 83 80 80 85 87 90 93 89 86 86 87 88 87 84 87 89 89 91
100 100 100 100 99 99 99 98 96 97 97 97 98 99 100 100 99 99 99 100 101 100 100 100 100 100 100 100 100 100 100 97 94 94 96 98 97 95 97 99 95 93 94 90 84 83 85 88 92 95 95 94 95 96 94 86 80 84 86 86 88 90 89 86 84 85 84 84 82 78 78 82 87 87 82 81 83 84 87 88 87 85 85 86 86
100 99 99 98 97 96 95 93 92 92 94 94 94 95 96 97 97 95 93 94 98 99 100 101 100 101 100 101 101 101 100 98 93 94 98 99 98 97 98 99 95 93 97 94 88 85 82 84 89 94 97 97 94 95 97 91 86 87 87 88 92 95 97 94 90 87 88 86 81 74 72 79 85 81 77 78 79 81 84 84 86 88 90 90 87
97 97 98 96 96 95 92 91 91 92 94 94 94 96 97 96 96 97 95 95 95 92 92 95 97 99 98 95 93 92 93 95 94 96 100 100 100 99 99 98 94 92 95 95 94 92 87 84 85 88 92 92 89 88 91 93 91 88 86 86 89 92 96 99 96 90 88 86 79 73 73 79 85 82 79 80 80 84 86 82 85 90 91 92 92
94 94 95 95 95 94 93 94 95 95 97 97 96 96 96 96 97 99 99 98 97 92 85 85 85 83 82 76 72 71 72 77 85 92 97 100 100 97 96 94 91 90 91 94 97 96 92 90 88 88 86 81 79 79 80 85 88 85 85 87 86 87 91 96 97 94 92 90 85 80 78 78 79 79 79 81 82 83 83 80 84 90 91 94 96
92 91 91 91 90 91 92 94 95 95 95 95 94 93 95 97 95 93 91 89 89 87 83 86 85 73 64 60 59 63 65 67 75 84 91 98 97 93 93 93 93 92 91 95 98 95 91 90 90 90 86 76 71 73 76 82 85 83 85 89 88 87 92 96 96 95 95 95 90 83 79 77 76 76 79 82 83 81 80 81 84 87 91 97 98
90 89 88 89 89 90 90 90 92 92 92 91 91 92 92 91 87 82 80 75 73 76 78 85 89 78 66 60 59 64 67 65 67 70 80 93 96 96 98 97 95 94 92 95 98 96 95 94 92 89 87 80 76 77 78 80 85 86 87 89 86 82 87 91 92 93 95 96 91 81 78 80 78 77 80 83 84 84 84 86 85 83 86 93 98
88 87 87 87 88 89 89 90 91 90 89 90 88 87 88 88 85 80 76 73 74 80 82 82 83 80 74 67 63 66 69 67 65 65 73 86 94 98 99 98 97 95 91 91 94 93 92 91 90 87 85 84 83 84 83 83 87 87 88 91 86 81 84 86 88 94 98 96 91 84 79 81 81 80 82 83 84 86 85 85 85 80 80 87 91
87 87 87 86 86 86 87 87 88 88 87 86 84 83 86 88 85 80 76 79 85 88 87 83 81 82 80 73 68 69 71 69 68 69 72 77 82 87 91 95 98 97 93 92 91 89 84 81 80 78 77 78 80 84 86 88 90 90 92 95 90 86 86 87 90 95 99 98 94 88 82 82 82 80 82 84 85 86 84 84 84 77 80 89 83
86 86 85 85 85 84 85 84 84 86 84 81 81 83 86 87 83 79 78 83 89 89 86 83 83 85 82 76 73 74 72 69 68 69 71 72 73 77 84 91 92 91 91 94 94 92 86 81 80 78 78 77 76 80 81 80 81 86 91 94 93 92 89 88 90 92 95 99 97 90 85 85 84 79 79 84 87 87 83 82 80 74 82 95 84
84 84 83 83 83 82 82 82 81 82 81 80 81 83 85 86 83 79 79 83 87 87 86 84 83 83 77 73 77 81 79 76 74 69 66 68 70 72 76 84 85 81 82 86 92 95 91 84 82 81 82 79 75 76 77 74 75 81 89 92 93 94 92 89 90 89 91 96 97 93 89 90 89 83 80 83 85 86 86 82 74 72 84 96 88
81 81 80 78 79 80 79 79 78 79 80 80 80 80 82 84 83 79 80 83 84 86 87 85 84 82 77 75 81 86 86 83 78 68 62 63 65 65 68 74 77 76 77 78 82 91 94 90 86 84 83 80 77 76 77 79 81 85 93 96 95 95 94 94 94 92 91 93 96 95 93 94 93 88 84 85 86 85 85 84 76 75 87 94 86
80 77 76 75 76 78 77 77 77 77 79 80 79 78 80 83 83 80 80 82 82 84 85 86 85 84 83 83 84 85 83 78 72 65 62 62 61 59 62 65 68 71 74 77 81 89 96 96 93 89 85 82 81 79 79 81 83 86 88 89 94 99 96 93 93 92 89 89 92 93 92 92 92 89 87 87 87 87 86 87 84 80 89 93 86
78 74 73 73 74 75 75 75 76 77 79 79 79 79 80 82 81 79 81 82 82 83 83 83 84 84 87 87 84 81 77 72 68 67 66 67 65 65 66 66 70 73 72 76 88 97 99 99 96 93 89 88 87 85 86 87 86 86 82 78 86 96 94 88 86 85 85 86 90 92 90 90 90 88 86 83 85 88 87 86 84 83 90 97 92
77 75 74 73 72 74 74 74 75 77 78 78 80 79 78 78 78 78 80 81 81 82 81 81 82 83 86 87 82 78 74 70 69 71 74 74 73 73 73 75 79 85 84 84 91 99 100 100 99 96 94 95 94 91 93 97 95 94 90 83 82 85 88 91 88 82 81 83 86 85 84 88 92 91 87 82 83 86 85 83 81 79 84 91 89
77 75 74 73 73 74 74 74 75 76 78 79 80 78 77 77 78 79 79 80 81 81 82 82 82 84 88 87 81 74 74 76 74 75 78 80 80 79 81 85 90 95 97 96 96 98 99 100 101 100 99 99 98 94 93 97 98 98 99 97 90 82 82 87 86 81 79 80 82 79 76 83 91 92 87 84 84 83 80 76 70 66 70 79 84
77 76 76 74 74 74 74 75 75 76 78 79 78 78 77 77 77 77 77 79 81 83 85 85 84 86 89 90 86 80 82 86 84 80 80 81 84 85 86 91 97 99 100 100 99 99 100 100 100 100 100 100 99 98 97 98 98 97 96 98 98 93 88 83 77 79 81 77 75 78 80 83 86 86 82 80 82 83 79 73 67 65 68 76 83
77 77 76 75 75 74 74 74 73 74 75 75 76 76 75 74 73 75 78 79 79 81 84 85 85 88 91 93 94 92 92 94 91 84 83 83 86 88 88 92 98 100 100 100 100 100 100 100 100 100 100 100 100 100 100 100 99 97 93 92 94 95 95 89 80 83 87 79 73 79 85 88 89 85 81 78 78 79 80 78 71 66 68 73 76
79 79 78 76 75 73 72 71 69 69 71 71 74 74 71 71 71 76 82 81 77 78 80 82 85 91 95 97 99 98 97 97 93 86 84 85 86 87 87 88 92 97 99 99 99 99 99 99 99 99 98 98 100 100 100 100 100 99 96 92 93 95 97 94 87 88 91 85 79 80 81 85 89 88 86 83 79 77 81 85 78 69 70 75 76
80 80 79 77 74 71 69 68 66 66 68 70 71 70 67 70 74 77 79 77 75 76 76 79 89 96 98 98 99 100 99 95 90 87 87 88 88 88 88 85 85 89 92 94 95 95 98 99 98 99 98 97 98 99 100 100 99 99 98 95 97 98 97 97 94 92 93 89 85 83 79 77 81 86 89 88 85 84 84 85 82 78 80 84 83
79 79 77 75 72 69 67 66 65 65 65 65 66 65 64 70 77 78 76 74 73 73 75 84 95 99 98 98 100 100 97 93 89 89 90 91 92 92 91 88 86 86 87 90 90 90 92 95 96 98 98 98 98 98 99 100 99 100 100 98 100 99 96 95 94 93 95 95 90 85 82 80 82 87 92 92 91 90 87 85 81 78 81 84 83
78 77 75 72 70 67 65 64 63 61 60 59 59 59 63 71 77 78 77 75 73 74 80 89 97 99 97 98 100 99 97 95 93 93 93 93 94 94 92 90 87 86 88 90 90 90 90 91 92 93 94 95 96 96 96 96 97 99 99 97 99 99 95 92 91 92 95 98 93 85 83 89 91 88 88 88 88 87 84 84 83 78 77 79 78
77 75 72 71 69 67 64 62 61 60 59 59 57 58 65 72 76 77 75 73 73 77 85 90 92 96 99 101 99 98 97 97 96 96 95 93 93 94 93 92 88 87 88 89 88 88 87 87 87 88 89 90 92 92 91 90 91 94 95 95 97 100 98 93 90 91 93 97 97 90 85 91 94 89 84 81 82 81 77 77 81 83 83 86 88
75 73 72 72 71 68 67 65 65 64 62 61 60 61 68 75 76 76 74 74 76 81 88 90 84 82 88 95 97 98 98 97 96 96 93 90 93 96 96 93 91 90 88 87 86 86 86 85 84 85 87 89 90 91 91 89 88 90 93 94 94 97 99 96 94 94 94 95 97 92 87 88 90 90 87 82 81 84 82 81 84 87 91 94 95
73 74 75 74 72 69 68 67 67 66 63 62 62 64 70 73 73 74 76 78 81 85 89 88 80 72 72 78 84 88 90 91 92 91 89 88 91 94 93 90 89 90 89 89 88 87 87 86 84 85 85 86 88 89 90 89 87 85 89 92 92 92 94 97 97 97 95 93 91 89 85 80 79 83 85 84 84 85 86 87 85 85 90 93 91
74 77 77 75 72 69 68 67 67 67 65 63 62 63 67 69 69 71 74 77 82 86 86 82 78 76 74 72 74 77 77 77 77 80 85 88 88 88 89 88 88 88 90 93 92 89 88 87 86 85 84 84 85 86 87 87 86 87 89 92 94 94 93 93 92 92 93 93 91 91 87 78 75 79 82 83 85 84 84 86 85 85 89 89 87
78 79 77 75 73 72 70 70 69 68 67 65 64 64 65 67 67 68 71 75 79 80 79 77 78 79 77 76 77 79 76 70 65 69 79 83 83 87 89 89 91 91 90 91 92 90 88 87 86 86 84 85 85 84 84 86 89 92 93 94 97 98 98 96 93 93 98 97 95 95 92 85 81 81 83 88 91 90 86 85 85 88 91 90 90
78 77 77 75 74 73 72 71 69 69 71 69 66 65 65 68 69 68 70 73 74 74 75 75 77 77 76 76 78 79 74 62 55 62 75 81 83 86 83 80 85 92 93 91 88 86 87 87 88 88 87 86 86 84 84 87 93 97 96 97 100 100 100 100 97 98 101 100 98 97 93 90 87 84 86 91 94 94 90 87 89 91 92 94 96
75 76 76 75 74 72 71 72 71 71 72 71 69 67 66 68 70 71 71 71 71 73 74 73 72 72 74 77 78 76 67 54 48 54 65 74 76 72 62 57 62 74 84 86 82 80 83 86 89 92 92 89 87 86 84 87 95 100 98 98 100 99 100 101 99 100 101 99 100 98 92 90 90 88 90 93 95 96 91 88 90 89 88 94 99
74 74 73 72 71 70 69 72 71 71 71 71 71 69 68 69 71 72 71 71 71 72 73 72 70 69 71 73 74 72 66 60 55 51 53 58 59 56 52 50 50 53 60 66 68 72 80 84 87 92 96 94 91 89 85 83 89 97 100 99 98 96 96 98 100 100 100 100 101 96 91 93 94 94 96 96 98 99 90 82 86 87 87 95 99
72 70 68 67 66 65 66 67 67 68 70 69 68 68 69 72 73 73 73 72 72 72 72 74 73 71 70 70 71 70 67 66 63 57 54 55 55 55 55 53 50 48 48 50 55 64 75 82 85 89 94 98 98 94 89 84 83 89 96 100 99 95 93 95 97 95 94 98 101 99 95 95 95 96 96 92 91 94 89 86 91 91 90 97 100
70 67 64 63 61 60 61 61 61 65 67 65 64 66 69 71 72 74 75 75 74 73 73 76 76 73 70 70 73 73 70 68 67 64 61 60 59 59 60 58 54 51 48 48 50 55 64 75 83 87 90 95 99 99 95 89 84 85 90 95 99 99 97 97 97 92 88 90 96 99 98 97 94 92 89 82 76 79 83 85 89 91 91 93 96
66 63 61 60 59 58 58 57 57 60 61 61 63 66 71 72 71 71 72 72 72 72 72 74 74 72 71 71 72 72 70 70 70 66 65 64 63 63 64 62 59 53 48 49 50 50 53 62 73 82 87 90 93 97 99 97 91 88 88 91 96 100 100 100 99 97 93 90 93 98 99 100 97 95 94 85 72 71 79 78 76 87 97 93 88
63 61 59 59 58 57 56 55 55 57 58 59 61 65 70 71 70 69 68 70 72 71 70 71 71 71 72 71 70 70 71 73 71 67 65 65 64 64 65 65 63 57 50 49 50 50 51 52 58 69 81 87 88 90 94 98 98 95 92 91 92 95 99 101 100 100 99 98 99 100 99 101 100 98 100 94 78 73 81 78 73 85 98 97 93
61 60 59 59 57 55 53 53 53 54 55 55 58 61 64 63 64 65 65 67 71 71 69 70 71 71 70 69 69 69 71 74 71 66 66 66 63 63 65 67 67 63 56 52 52 53 53 51 53 59 69 79 86 88 88 91 95 98 98 96 93 91 94 97 98 99 100 100 101 100 99 100 101 99 101 100 91 85 88 90 88 85 83 87 93
59 59 58 57 55 52 51 51 52 50 49 52 56 57 56 54 55 58 60 61 63 66 68 68 69 67 65 66 68 67 69 72 71 68 68 67 64 63 64 67 68 67 63 59 57 57 58 55 54 57 63 70 78 84 88 87 88 91 95 98 99 97 96 96 97 99 101 100 100 101 100 100 101 100 100 100 100 98 97 99 100 92 84 87 94
57 57 57 54 52 51 49 48 48 46 46 51 53 52 50 50 51 54 57 57 55 58 61 62 63 62 61 64 65 63 64 69 70 69 69 68 66 63 63 66 69 68 67 64 60 61 64 62 57 57 62 67 70 76 82 86 86 88 89 93 97 99 99 99 99 100 101 100 100 100 100 100 100 100 100 99 100 101 100 100 101 100 98 98 99
57 56 55 52 50 48 47 47 47 46 45 48 50 48 49 52 52 53 55 53 50 51 55 58 59 59 59 62 61 58 63 69 69 69 70 69 67 64 62 65 69 70 68 66 63 63 67 69 65 60 60 66 71 75 78 81 84 87 89 91 93 95 96 97 99 100 100 100 100 99 100 101 100 100 101 101 100 100 101 100 100 100 100 100 100
57 54 52 49 47 47 47 47 46 46 45 46 47 47 48 51 52 53 55 52 47 46 49 52 55 56 58 59 56 56 62 68 69 68 69 69 68 66 63 65 70 72 69 66 64 65 67 72 74 68 63 66 74 82 87 87 84 84 87 91 94 95 94 94 95 98 100 100 100 98 97 98 98 96 97 99 100 100 100 101 101 100 100 101 100
55 52 49 47 46 46 46 47 47 47 46 45 44 44 45 45 46 49 52 51 49 47 45 46 50 54 55 54 53 56 61 65 67 67 67 68 68 66 64 65 69 72 70 66 65 67 68 71 77 76 73 75 82 89 93 92 86 81 82 86 91 95 96 94 91 91 92 93 94 93 93 94 94 94 94 95 98 100 100 99 99 99 99 100 100
53 50 47 46 46 46 46 46 45 45 44 45 44 44 45 44 43 44 46 47 48 48 47 47 48 50 51 51 52 56 60 62 64 65 64 65 68 66 64 65 69 72 70 67 66 67 67 70 75 78 79 84 91 94 90 86 84 81 78 78 81 85 88 90 88 83 79 81 84 84 86 89 90 91 93 94 96 98 99 98 97 97 97 98 99
51 49 47 45 45 47 48 48 47 45 44 44 43 43 44 44 44 43 43 44 47 48 47 47 47 47 48 50 51 53 56 59 61 62 61 63 66 65 63 63 67 70 70 67 65 66 67 70 73 76 77 80 86 91 88 85 87 88 84 79 77 76 78 82 81 77 74 77 79 80 81 84 86 87 89 92 93 94 95 97 97 97 97 97 97
Wind_Speed
18 18 16 15 15 14 15 14 14 13 12 11 13 12 11 10 10 10 9 8 7 7 5 4 3 3 3 3 4 5 7 8 8 8 9 10 11 11 12 14 15 17 18 19 20 21 20 21 21 22 22 21 20 20 20 21 21 21 20 22 24 24 23 23 23 22 21 23 25 22 20 19 18 16 17 17 16 16 15 14 13 11 10 10 10
19 17 17 18 17 16 16 15 14 13 13 11 12 12 10 10 9 9 8 7 7 6 5 4 3 4 4 5 6 6 7 8 9 10 10 11 12 12 13 14 15 16 18 19 20 21 21 21 22 21 22 22 21 21 21 21 22 22 21 22 23 24 23 24 26 24 23 24 25 24 22 20 18 17 18 17 18 18 17 16 14 12 11 11 10
20 18 18 18 17 15 14 14 13 12 12 11 11 11 11 9 8 8 7 6 5 4 3 3 4 5 5 6 6 6 7 8 9 10 11 12 12 12 13 14 15 15 16 18 20 21 21 21 22 21 22 22 21 20 20 21 22 22 23 23 23 24 23 23 27 27 25 22 21 22 21 18 16 18 19 19 18 19 19 17 15 13 12 11 10
23 21 20 19 16 13 12 13 12 10 10 9 9 8 9 8 7 6 6 5 4 4 4 4 4 5 4 4 4 4 3 4 6 7 10 12 13 13 14 16 17 16 16 17 18 20 21 21 22 22 23 22 21 20 19 20 21 22 23 24 24 24 23 23 27 29 27 23 21 20 18 16 16 18 20 21 20 20 20 18 15 15 14 13 12
25 22 21 21 19 15 14 13 12 11 11 10 9 8 7 7 6 4 4 5 5 6 6 4 4 4 3 2 2 2 2 4 6 8 10 12 13 14 15 16 18 18 17 17 17 18 20 22 22 23 24 24 23 22 21 20 20 21 23 25 24 24 23 23 25 27 27 26 24 20 16 15 16 18 18 20 22 21 20 19 17 17 17 16 14
23 22 22 23 21 19 16 14 14 13 13 12 11 10 10 9 8 6 4 2 4 6 6 4 4 4 3 2 2 3 5 7 9 11 12 14 16 16 16 16 18 19 18 16 16 17 19 22 23 23 23 24 23 22 22 22 20 20 22 24 25 24 23 23 25 26 26 26 26 24 20 17 16 17 17 17 21 22 21 21 20 19 18 17 16
24 22 21 22 21 20 18 16 15 15 16 14 13 13 12 11 9 8 6 5 4 5 6 7 5 4 3 2 3 4 7 8 10 12 12 13 15 16 16 16 18 19 18 16 15 15 18 20 22 22 22 22 23 22 22 22 21 19 21 23 24 25 25 25 25 26 26 25 26 26 25 22 16 15 18 16 18 22 23 23 22 21 19 18 17
24 23 21 21 20 18 18 17 16 15 16 15 14 14 12 11 11 9 8 8 8 8 8 9 8 6 5 4 4 5 7 8 10 12 12 12 13 15 15 15 17 17 16 16 16 15 17 19 20 21 22 22 22 22 21 20 20 20 21 23 25 26 27 26 25 26 27 26 26 26 27 25 19 16 17 16 16 20 24 25 24 22 20 19 19
23 22 21 20 18 17 16 16 15 13 13 11 10 11 11 11 11 11 11 10 10 11 10 9 10 10 8 7 7 7 7 9 10 11 11 12 12 13 14 15 15 16 16 14 14 15 16 17 19 19 20 20 20 21 20 19 19 20 22 23 26 27 27 26 26 27 28 26 25 26 27 27 24 18 16 16 16 17 21 25 26 23 22 22 21
21 20 19 17 16 15 13 13 12 11 9 8 8 10 10 10 10 11 10 9 9 11 11 9 10 11 9 8 8 8 8 9 10 10 11 11 12 12 14 14 15 16 15 13 12 13 14 16 17 17 16 17 18 19 18 18 18 19 21 23 25 28 28 27 26 26 27 27 25 25 27 28 27 23 19 18 17 17 17 21 24 25 24 23 22
21 20 18 16 14 12 11 10 9 8 8 8 8 9 9 8 8 8 8 8 8 10 10 10 10 10 10 10 9 8 8 9 9 9 9 10 11 12 13 14 15 15 14 12 12 12 14 15 16 16 15 15 17 17 16 16 17 19 21 22 24 27 29 28 27 27 27 27 26 25 26 26 27 27 25 22 20 19 18 18 20 23 24 23 23
20 20 17 15 13 11 9 8 6 5 4 4 4 6 7 5 3 1 0 4 7 8 9 10 10 10 11 12 11 9 9 8 8 8 9 10 11 11 13 14 16 16 15 13 11 12 13 13 14 15 14 15 16 17 17 17 18 20 21 22 24 27 29 29 28 28 28 28 27 27 26 24 25 26 26 25 23 21 19 19 19 20 22 23 23
17 17 15 14 13 11 8 8 7 6 6 4 4 4 6 7 7 6 5 2 1 3 4 7 9 10 10 10 9 9 9 9 10 9 9 12 12 11 13 15 16 17 17 15 13 13 13 12 13 14 13 14 15 15 18 20 20 20 21 22 23 25 28 30 29 29 30 29 27 27 26 25 25 25 24 26 25 22 20 20 19 19 21 23 23
16 15 14 13 12 9 7 7 7 6 7 7 7 8 9 9 7 5 4 4 5 4 3 2 1 5 6 6 5 5 6 7 8 8 9 13 13 13 14 15 16 17 18 17 16 16 15 13 14 14 13 14 14 14 16 18 19 20 22 22 23 23 25 27 29 30 30 28 26 25 26 25 25 25 25 26 27 26 23 22 22 21 21 23 24
17 16 14 12 10 8 7 6 5 6 8 8 10 12 11 8 6 6 7 8 8 6 4 6 5 3 1 1 1 0 1 3 4 6 8 11 12 13 14 14 14 15 15 15 16 17 16 14 14 14 15 16 16 17 17 18 20 21 22 22 22 22 23 24 26 28 30 30 27 26 26 26 26 26 26 26 26 27 25 23 24 24 22 23 24
19 18 17 14 12 10 9 8 7 9 10 9 9 10 10 8 8 10 13 13 10 8 10 11 10 9 8 7 6 4 2 1 2 4 6 7 9 11 12 12 13 13 13 13 13 14 14 13 14 14 15 16 17 18 19 20 21 22 21 22 22 22 22 24 24 26 29 30 29 27 27 27 27 26 26 25 25 27 26 24 26 27 25 25 24
19 18 17 15 13 12 10 10 9 10 10 9 9 9 8 7 9 14 18 19 18 19 20 19 16 14 14 12 10 8 5 4 4 5 5 5 6 7 8 10 11 11 12 12 12 13 12 13 13 14 15 16 16 18 19 20 22 22 21 21 22 22 22 23 24 26 28 29 29 28 28 28 28 27 25 25 25 26 26 25 26 27 26 28 27
18 17 16 14 13 11 9 9 9 9 10 10 12 11 10 8 11 15 18 20 21 22 23 23 20 19 18 17 15 13 11 9 9 8 6 5 6 6 6 7 9 10 11 11 12 12 12 12 13 14 15 15 15 16 17 19 21 22 23 22 20 20 22 23 23 24 26 27 27 27 28 28 28 27 26 25 24 25 26 26 27 27 27 31 30
18 16 15 14 13 11 10 10 11 11 11 11 12 13 13 13 14 15 17 19 19 19 22 22 21 20 19 18 18 18 17 15 15 13 10 8 8 8 7 6 6 7 8 9 10 12 12 12 13 14 14 14 14 15 17 19 21 22 24 23 20 18 19 21 22 22 22 24 26 27 28 29 28 27 27 26 26 26 26 26 28 28 29 33 33
18 16 15 14 14 13 12 12 11 12 12 11 10 11 14 16 15 13 15 19 19 18 20 21 20 20 19 19 19 19 18 18 18 18 14 11 10 9 8 7 7 8 7 7 8 10 11 12 13 14 15 15 15 15 16 18 19 20 21 20 18 17 17 19 21 22 21 22 25 27 28 28 28 27 26 26 27 26 25 26 28 28 28 30 31
18 18 17 15 15 14 13 13 13 12 11 9 8 10 14 15 16 14 16 19 20 19 19 21 20 20 20 20 19 17 17 18 19 19 17 15 13 10 9 8 8 9 9 9 9 9 10 10 11 13 15 16 16 16 16 18 19 19 20 19 17 16 17 19 21 22 23 23 24 27 28 28 27 26 26 27 27 27 26 26 27 28 27 26 26
19 20 17 14 14 14 13 12 13 13 12 12 12 12 14 14 15 16 18 18 18 17 17 18 19 20 22 21 19 17 17 19 20 20 20 19 17 15 12 10 9 8 8 9 10 10 9 10 10 11 13 15 16 16 17 17 17 17 18 17 16 16 17 19 21 22 23 23 24 25 27 27 26 26 26 27 28 28 26 26 27 28 27 26 26
20 19 16 14 15 15 14 13 13 14 14 15 15 15 15 16 16 16 17 17 16 15 13 13 15 18 20 20 20 19 20 21 22 22 22 21 20 19 17 16 14 11 7 6 7 9 10 11 11 11 12 13 15 16 17 16 15 15 15 14 14 17 19 20 21 22 23 24 24 25 26 26 26 26 26 27 27 28 27 27 28 29 26 24 25
18 15 13 14 15 15 15 15 14 14 15 15 15 15 17 17 17 17 16 16 16 15 14 13 14 16 19 20 21 22 22 23 24 24 23 22 21 20 18 18 18 16 12 8 5 7 9 11 12 12 13 14 15 15 15 15 14 14 16 15 15 17 20 22 22 22 22 23 23 24 25 25 25 26 26 25 26 27 28 28 28 28 26 25 25
16 14 14 15 15 14 15 15 14 15 15 14 14 15 17 17 17 16 17 17 17 16 16 16 16 18 21 22 22 23 24 24 25 25 25 24 23 21 20 19 18 18 17 13 8 6 7 10 11 13 14 14 16 16 15 14 13 13 15 17 18 18 19 21 22 22 22 23 23 22 23 24 24 25 25 25 26 27 27 26 26 27 27 27 28
16 16 16 16 16 15 14 15 15 15 14 14 14 14 15 15 15 16 16 16 16 15 15 17 17 19 21 23 24 25 25 25 26 26 25 25 24 23 22 21 20 18 18 17 14 9 7 9 10 12 14 15 16 17 16 16 16 15 15 16 17 18 18 18 20 21 21 21 21 22 22 23 23 24 25 25 26 27 27 26 26 25 25 26 28
17 17 17 17 18 16 14 16 17 15 15 17 17 16 15 15 17 18 16 14 12 12 13 15 17 19 20 22 24 25 25 25 25 25 25 25 24 24 23 22 21 20 19 18 17 14 10 10 10 12 16 16 16 17 16 17 17 16 15 15 15 17 18 18 18 20 20 20 20 21 22 22 23 24 25 25 25 25 26 26 25 23 23 24 27
18 18 17 17 18 17 15 16 17 17 17 18 18 17 18 20 20 18 15 14 12 11 13 15 17 20 20 21 24 25 24 24 23 24 25 25 24 24 24 24 22 21 21 19 18 16 13 11 11 12 15 17 18 18 17 16 16 14 14 15 16 16 17 17 18 20 21 20 19 20 21 21 22 23 25 25 25 24 25 25 24 24 24 25 27
19 19 18 17 17 17 16 16 18 18 18 19 18 18 20 22 19 15 13 13 13 13 14 16 19 22 21 21 23 24 23 23 24 24 25 26 26 26 25 25 25 24 23 21 19 17 15 13 12 12 13 16 17 18 18 17 16 15 14 16 17 17 16 17 18 19 19 19 19 20 21 21 22 23 25 25 25 24 25 25 25 26 27 28 28
19 19 18 17 17 18 17 18 19 19 19 18 17 17 20 21 18 15 14 13 13 15 17 19 21 21 20 21 23 23 24 25 26 27 27 27 27 27 27 27 27 27 26 25 22 20 18 16 14 13 13 15 17 18 18 19 19 18 16 16 18 19 19 20 19 18 18 18 19 20 20 21 22 23 24 25 24 24 25 26 26 28 29 30 30
19 19 18 17 18 19 19 19 20 19 18 17 16 16 18 18 16 15 15 14 15 18 20 21 21 20 21 23 24 24 25 26 27 28 28 28 28 28 28 28 28 28 28 28 27 25 24 23 21 18 16 15 16 18 19 19 20 20 19 18 19 19 20 21 21 19 18 18 20 22 21 21 22 23 23 24 24 24 24 26 27 28 29 30 31
19 19 19 19 19 19 19 20 19 17 15 16 17 17 17 16 15 14 14 14 17 21 23 24 23 23 23 24 25 25 27 27 28 28 28 28 28 28 28 29 28 28 28 29 29 29 28 28 27 25 22 19 18 17 17 19 20 21 21 20 19 19 20 21 21 21 20 19 20 21 21 20 21 22 23 24 24 24 24 25 26 27 28 29 31
19 19 19 18 17 18 18 18 17 17 15 15 17 18 17 16 15 14 15 16 19 23 25 25 25 25 25 25 25 25 26 27 27 28 29 29 29 29 29 29 28 27 27 28 29 29 30 30 30 30 28 26 23 21 18 17 18 19 20 20 19 19 20 21 21 22 21 19 20 21 20 19 19 21 23 24 24 23 23 24 25 27 28 28 28
19 19 18 17 17 18 18 16 16 17 17 17 19 20 17 16 15 16 17 18 20 23 24 25 25 27 27 27 25 25 24 23 23 24 27 30 30 30 30 29 28 27 27 27 28 29 30 31 31 32 32 31 29 25 22 20 19 18 18 19 18 18 19 20 21 22 20 20 20 20 20 19 19 21 23 24 24 24 24 25 25 27 28 28 28
20 19 17 16 16 16 16 14 13 14 16 18 21 21 18 17 17 18 19 20 21 23 24 25 26 28 29 30 29 28 26 24 22 22 25 28 29 30 31 30 29 28 27 27 27 29 29 30 30 31 32 33 32 29 25 21 20 20 19 18 16 16 15 15 17 18 18 20 20 20 20 19 19 21 23 23 24 25 26 26 26 27 27 28 30
20 18 17 16 14 13 13 11 10 11 14 17 19 20 20 20 20 21 22 22 24 24 25 25 26 28 29 29 30 29 29 28 25 23 23 26 27 29 29 29 29 29 29 28 27 28 29 29 29 30 31 33 34 33 29 24 20 20 21 20 16 14 11 8 10 13 14 16 18 19 19 18 18 20 22 24 25 25 25 26 27 27 26 27 29
19 17 16 14 13 12 11 9 9 11 14 16 18 19 21 22 23 23 24 25 26 26 25 24 24 25 26 27 27 27 28 29 28 25 23 23 24 25 26 26 27 28 30 30 28 28 30 29 29 29 31 32 34 34 33 29 22 19 20 20 17 11 7 6 7 9 12 14 16 17 18 18 17 18 19 21 22 23 23 25 26 25 24 25 27
20 17 16 15 14 14 14 14 14 14 14 14 15 17 20 23 23 23 24 25 26 25 23 22 22 21 22 23 23 24 27 31 31 29 25 22 22 25 26 27 27 27 28 29 30 30 31 31 30 30 30 31 32 34 35 34 28 21 18 18 17 12 7 5 5 7 10 12 13 14 16 16 15 16 18 19 21 21 19 20 22 22 23 25 26
18 18 18 18 18 18 18 17 17 17 15 13 13 14 17 21 23 23 23 23 23 22 20 20 22 22 22 23 23 23 26 31 34 33 30 27 27 29 31 31 31 30 28 29 31 33 33 34 33 31 30 30 31 32 33 34 32 26 20 17 15 13 11 11 10 7 5 6 7 9 12 14 15 15 16 17 18 18 14 15 17 18 20 23 23
19 19 20 21 20 19 18 17 17 17 16 15 15 15 15 17 18 20 21 21 20 19 20 20 21 23 24 25 25 25 27 29 33 33 33 32 31 32 33 34 33 32 30 30 32 33 34 35 35 33 31 29 30 31 32 32 32 30 26 20 15 13 13 14 13 11 9 6 2 2 5 9 10 11 12 11 12 11 9 12 15 15 16 19 20
20 20 20 20 19 18 19 19 18 16 15 16 19 20 20 17 17 18 19 18 16 16 18 19 20 21 23 23 24 25 26 28 31 33 34 35 34 34 35 36 36 34 32 30 31 32 32 33 34 34 33 30 29 29 30 31 31 31 30 26 21 17 15 13 11 10 9 8 5 2 1 3 5 7 9 9 7 7 8 9 9 10 13 16 17
21 21 20 20 20 19 19 19 18 17 16 17 20 22 23 21 19 18 16 15 15 15 16 18 19 19 19 21 22 22 23 27 30 32 34 35 35 35 36 37 37 37 35 32 31 31 31 31 31 33 34 33 31 28 27 28 30 31 31 29 26 22 18 13 10 8 8 7 5 3 2 3 5 6 8 9 8 7 6 4 4 7 9 11 13
23 21 20 20 19 19 19 19 18 16 16 17 19 21 22 21 20 19 17 16 16 17 17 17 18 19 20 21 22 23 23 25 29 31 32 34 35 36 37 38 39 40 39 36 33 31 31 31 31 31 32 33 33 31 28 26 26 28 30 30 28 25 21 17 14 13 11 9 6 4 2 3 4 5 9 13 12 8 5 4 4 6 7 8 11
21 19 19 19 19 19 20 19 18 17 16 15 16 18 19 19 18 17 17 17 16 16 17 17 17 19 21 22 24 25 25 25 27 29 31 32 34 36 37 38 40 41 42 41 37 34 33 32 31 31 31 32 33 34 33 30 26 24 25 28 29 27 24 20 17 17 16 13 9 9 6 2 4 7 13 17 17 13 10 9 9 8 8 8 11
20 19 19 18 19 20 20 18 17 18 17 15 15 17 19 19 19 17 17 19 19 18 18 17 17 19 20 21 23 25 26 26 26 28 30 32 34 35 37 37 39 41 43 43 42 38 35 34 32 31 31 31 31 32 34 34 32 28 24 23 24 27 27 24 21 19 17 14 11 10 11 9 10 14 18 19 20 18 16 14 14 13 12 12 14
21 20 20 19 18 19 19 18 18 17 16 15 15 16 17 17 18 18 18 19 20 20 18 17 17 18 19 20 22 24 25 25 25 27 29 31 33 34 35 36 37 39 42 43 43 41 38 36 34 32 30 30 30 31 33 34 34 34 30 24 21 21 23 24 24 21 17 14 12 10 11 13 13 16 20 21 21 21 21 19 18 18 17 17 18
21 19 20 19 18 19 19 19 18 16 17 18 18 18 17 16 15 15 16 19 21 21 19 18 17 17 18 19 21 23 23 23 24 26 28 30 31 32 33 34 34 36 39 42 42 42 40 39 37 35 31 29 29 30 32 33 34 34 34 31 27 24 21 20 21 20 19 17 15 13 13 15 14 15 20 23 22 21 21 22 21 21 20 20 21
21 19 19 19 20 20 19 18 17 16 16 18 18 17 17 16 15 13 13 16 19 21 20 19 17 17 17 18 21 22 21 21 23 25 26 27 29 30 32 33 32 33 37 40 40 40 40 39 39 37 34 31 29 29 30 32 33 32 32 31 31 31 29 26 22 18 15 13 13 12 13 15 15 15 18 23 26 25 24 23 22 21 21 20 21
21 20 19 19 20 20 19 19 18 16 15 15 16 16 15 14 14 15 16 16 16 19 20 19 17 16 16 18 20 20 19 20 22 23 24 25 26 28 29 30 30 31 34 37 37 37 36 36 37 38 37 33 30 29 28 27 28 29 29 29 29 30 30 29 26 21 17 14 14 14 15 16 16 16 17 19 24 26 26 25 24 23 23 22 22
21 20 19 19 21 20 19 18 17 17 17 16 15 16 15 13 12 13 14 14 13 15 18 17 16 16 17 18 18 18 18 19 20 22 24 24 24 25 27 27 27 28 31 32 34 34 34 33 33 35 36 32 28 25 25 24 24 26 27 27 27 26 25 25 25 23 22 22 23 23 23 22 20 19 18 18 18 19 20 20 19 18 18 18 19
21 20 19 19 20 20 19 19 17 16 16 15 15 14 13 13 13 13 13 13 12 13 15 16 15 17 17 17 17 17 16 16 18 21 23 23 21 22 25 26 24 25 27 28 30 32 32 31 31 32 34 32 27 22 21 22 23 25 25 25 24 24 24 24 23 22 23 26 27 27 27 26 23 22 21 19 17 16 16 16 15 14 13 13 13
Wind_Direction
129 131 131 129 123 117 118 128 142 142 136 138 139 141 147 150 154 159 161 161 163 165 170 187 199 220 239 255 273 279 284 285 286 286 284 285 284 282 282 279 276 273 270 269 269 271 268 259 253 250 251 253 251 249 247 241 237 236 235 233 230 231 231 226 223 225 229 228 223 224 226 223 228 229 223 224 228 234 241 241 240 243 241 243 245
131 132 127 122 118 114 114 122 133 134 129 130 132 136 141 145 150 153 159 167 171 172 174 182 218 246 261 270 276 280 282 284 285 286 285 286 289 290 292 288 283 281 276 273 274 273 269 260 255 254 254 252 250 249 246 241 239 239 239 237 235 234 230 223 224 224 223 224 220 221 225 223 224 225 222 225 227 231 240 241 238 238 238 237 238
126 125 122 122 123 123 123 124 125 127 126 126 129 132 135 138 147 152 157 173 185 190 193 217 252 255 263 272 280 287 286 288 290 293 295 297 301 302 302 300 296 291 284 279 278 276 270 261 257 256 253 250 248 248 248 244 242 243 243 242 238 235 231 225 225 225 224 224 221 222 226 226 224 223 223 226 228 230 236 239 237 235 236 233 230
123 123 122 123 123 122 125 125 126 130 131 133 134 131 132 133 137 147 157 173 186 188 198 224 236 237 244 258 285 296 290 292 292 296 300 301 304 305 306 307 304 300 293 284 278 274 268 261 257 255 251 248 246 247 249 248 246 246 244 243 240 236 234 229 227 229 229 225 221 222 225 224 226 227 226 226 229 229 230 234 235 234 235 232 228
122 120 120 120 119 120 123 123 125 130 130 133 138 136 130 121 118 134 165 184 188 186 190 203 204 201 204 226 281 288 294 298 296 300 303 299 297 300 304 305 305 305 300 289 280 274 267 261 257 254 250 247 247 249 249 247 246 245 242 241 241 239 238 235 232 232 231 229 223 220 220 219 226 234 231 228 228 225 224 227 230 231 232 234 231
121 120 120 121 122 125 126 121 118 119 120 123 124 123 117 112 112 113 119 140 173 179 169 150 150 160 170 208 271 287 296 299 302 303 301 300 299 300 303 306 307 308 305 294 284 277 270 263 257 251 249 247 248 249 247 244 243 242 240 240 242 242 240 239 237 233 231 231 226 223 226 228 234 237 230 223 222 220 221 225 227 226 228 234 231
122 123 122 123 126 127 127 121 118 117 119 123 122 123 123 118 120 121 117 116 132 152 149 144 152 165 179 230 271 280 288 293 296 294 292 296 298 299 303 308 308 309 309 303 293 283 274 266 260 255 252 249 247 246 245 244 243 242 242 242 243 244 243 241 238 234 230 228 226 225 229 233 236 237 230 221 214 213 216 222 225 224 225 231 229
121 120 119 122 125 127 126 122 124 124 122 126 126 130 135 130 131 140 147 151 155 162 164 168 179 191 199 216 236 252 266 271 274 279 285 290 292 296 302 307 309 310 313 309 299 291 281 272 266 261 257 252 248 245 245 243 242 244 244 242 241 241 243 244 241 236 232 229 226 224 226 229 228 229 231 229 222 213 211 217 223 225 227 231 229
120 119 117 119 122 125 126 124 129 133 129 128 130 137 148 151 151 158 165 168 172 178 181 183 189 199 205 210 220 235 249 256 261 271 281 287 292 300 305 307 307 308 316 314 301 293 287 280 273 267 262 256 250 245 243 242 242 245 246 243 241 239 241 243 241 237 233 231 228 223 222 226 226 221 222 227 228 220 213 217 221 222 225 227 226
118 119 117 118 120 124 130 132 138 146 147 151 159 160 160 165 170 173 177 183 185 189 194 196 198 205 211 215 223 234 246 254 260 270 279 288 294 298 300 304 304 305 314 317 305 295 290 284 276 270 265 256 249 245 242 244 247 249 249 246 243 241 239 240 240 238 234 231 230 225 221 224 226 223 220 222 224 223 220 223 223 221 223 223 220
113 112 114 115 117 121 131 136 139 149 163 173 174 167 166 176 184 185 193 204 209 208 208 210 211 213 216 221 228 235 246 256 265 274 284 292 297 299 298 299 299 298 304 312 311 303 296 289 281 274 269 260 256 254 254 257 259 259 256 252 247 243 240 239 239 239 236 231 229 227 226 227 229 229 229 229 228 226 224 227 227 226 228 227 221
112 111 109 108 108 110 113 115 116 122 143 158 151 150 155 156 148 96 174 217 223 226 224 225 227 226 226 230 236 243 252 264 277 289 305 310 308 308 306 303 301 298 295 297 303 306 303 296 287 281 276 271 268 266 268 272 271 268 264 259 255 250 246 243 240 238 235 232 229 229 231 233 233 234 235 235 235 233 229 229 231 230 230 229 223
110 108 105 103 102 98 96 92 85 75 68 60 60 88 94 82 70 55 43 32 264 244 234 234 236 235 239 245 252 260 261 266 275 289 321 324 318 318 316 314 315 312 306 298 296 302 303 298 294 289 286 286 284 280 277 276 274 273 270 265 261 257 252 250 246 242 237 233 231 232 234 234 234 236 236 234 234 232 231 232 233 234 232 227 222
107 104 102 100 98 95 94 88 81 76 65 49 44 62 74 75 72 65 43 8 346 343 6 46 235 232 234 244 257 263 263 271 274 286 324 328 324 328 326 321 319 316 313 306 299 297 297 298 301 302 302 301 298 294 284 278 276 273 270 268 266 262 256 252 250 246 240 234 232 233 233 233 234 236 236 235 233 230 231 234 231 231 230 225 219
109 104 96 90 89 87 85 80 80 79 68 59 64 68 72 70 44 15 0 345 335 337 12 46 36 6 337 294 9 36 264 292 284 285 317 333 335 336 333 330 324 318 315 310 301 296 295 297 300 304 307 305 300 297 289 281 276 271 267 265 266 265 259 255 251 246 241 236 233 232 233 234 233 236 237 236 234 232 234 237 232 226 222 219 217
113 109 103 98 93 84 78 77 80 83 74 65 71 70 60 49 29 17 13 7 8 25 32 31 19 8 16 28 32 41 51 1 313 304 323 341 347 344 341 340 337 333 328 321 314 309 303 302 303 304 306 304 300 298 293 288 281 274 268 263 261 262 261 258 253 248 244 238 234 233 234 235 234 236 237 234 232 232 234 236 232 225 218 213 211
116 116 116 113 106 97 91 89 89 93 86 68 65 67 58 45 26 21 26 32 38 40 32 24 21 22 25 28 29 30 32 18 349 346 351 351 348 346 345 345 347 347 340 332 330 325 317 314 311 308 306 304 301 298 294 290 284 277 271 265 261 259 260 260 256 252 247 239 235 235 236 236 235 235 235 231 230 230 231 230 228 225 223 216 209
117 116 117 113 109 104 97 93 90 92 90 77 69 65 62 53 33 29 38 46 46 41 31 22 20 24 26 26 27 26 23 19 6 358 351 336 331 334 342 347 350 350 344 338 333 328 323 320 314 308 305 303 302 300 296 292 288 281 273 266 262 260 258 258 255 254 251 244 238 237 236 235 234 233 233 230 228 228 228 228 226 225 225 223 219
114 113 114 111 109 104 95 93 91 87 85 83 75 65 61 53 40 44 57 58 54 43 32 24 19 18 19 22 26 26 22 19 13 6 357 344 336 329 327 331 332 337 340 337 333 330 326 322 318 315 311 307 304 303 300 297 293 286 277 270 264 260 258 255 251 249 250 247 242 238 234 233 233 233 232 231 229 229 230 229 226 225 224 224 226
112 110 107 104 105 103 98 95 91 87 85 84 78 67 62 52 41 51 71 68 61 48 33 27 22 16 17 24 29 29 22 15 10 5 2 1 354 336 322 314 308 311 317 319 327 332 326 319 319 317 313 311 309 308 305 302 298 293 284 274 264 259 259 257 252 248 248 248 243 238 235 235 234 234 233 232 232 232 232 230 226 228 228 221 221
114 108 101 101 105 103 100 97 91 88 86 80 72 65 61 52 41 50 71 69 60 52 42 33 25 19 21 28 32 29 18 10 6 1 2 6 5 356 339 319 304 299 299 299 306 317 318 314 313 313 312 311 311 312 310 304 302 299 291 280 266 259 261 261 256 252 249 247 244 241 240 238 236 234 234 234 234 233 232 230 227 228 229 219 214
114 110 106 106 109 104 99 99 93 86 77 68 65 68 64 52 44 53 67 64 54 53 49 39 31 26 26 27 27 23 13 8 6 4 5 6 5 4 359 347 333 315 300 296 301 308 313 314 313 310 310 310 308 308 308 306 303 299 297 293 280 268 266 263 259 255 250 247 245 244 243 242 239 238 238 236 234 233 232 232 230 229 230 224 216
112 111 107 106 108 105 99 95 90 82 75 69 67 68 65 52 46 56 65 60 51 48 45 36 31 29 27 25 22 17 10 9 9 8 8 8 8 8 6 1 358 351 333 313 312 317 320 320 317 310 309 310 307 303 304 307 303 297 298 298 285 271 266 262 258 253 249 247 247 248 247 245 242 240 240 238 235 232 232 233 232 232 236 236 225
112 113 107 106 107 103 95 88 83 79 76 73 70 70 68 59 53 56 58 55 47 39 33 29 30 31 28 22 19 16 11 10 13 15 15 15 15 14 11 7 5 2 358 350 331 320 321 324 323 322 323 319 311 304 302 304 304 300 296 290 281 273 267 262 257 249 246 247 247 248 247 245 245 243 240 237 234 232 232 233 233 232 238 243 236
115 115 107 102 100 97 93 87 84 86 82 77 77 77 73 67 64 63 58 56 51 43 36 33 35 36 29 21 18 18 17 16 18 22 24 23 21 19 16 13 11 8 5 1 354 331 319 323 327 331 333 324 312 305 297 290 289 292 292 287 281 274 267 264 258 248 244 246 247 246 244 243 243 241 237 233 231 232 232 233 234 235 237 239 237
115 114 107 102 100 98 96 87 84 90 85 76 78 78 72 69 70 65 58 57 57 50 43 38 37 39 32 24 21 21 23 22 22 25 28 29 28 25 22 19 16 12 8 7 5 353 330 320 322 325 323 318 314 310 299 288 287 285 282 282 282 277 269 263 257 249 243 244 246 245 244 242 239 235 234 233 232 233 234 235 234 234 235 235 235
117 113 108 106 101 97 96 87 81 82 79 74 72 70 69 70 67 62 57 54 52 48 44 39 39 40 35 29 27 27 27 26 25 29 32 33 34 33 29 27 24 19 15 13 12 6 350 330 318 312 309 308 312 313 303 290 290 292 285 277 277 275 267 259 252 246 241 240 241 242 243 243 239 235 234 235 235 234 234 235 234 232 233 233 234
119 114 111 107 99 95 95 92 86 82 78 75 69 66 72 71 65 64 63 53 40 36 36 36 40 40 35 35 35 31 30 29 28 31 35 37 39 38 36 34 33 30 27 22 17 12 3 346 329 314 306 304 306 311 309 297 289 291 291 282 276 270 265 259 250 242 238 237 238 239 241 242 241 240 238 236 237 236 234 233 232 231 232 232 233
113 111 111 108 101 98 97 95 91 84 78 75 69 68 74 71 63 62 58 42 26 23 30 39 44 39 34 40 41 34 31 33 32 34 37 38 40 39 38 37 36 36 36 32 25 19 11 1 347 330 316 309 306 310 315 312 301 291 285 280 277 272 264 258 252 243 240 243 243 241 240 241 241 242 241 238 239 239 236 233 233 233 232 231 232
112 112 110 108 105 100 96 94 91 85 79 73 67 70 75 73 70 65 53 34 22 24 36 46 47 39 36 44 44 35 33 35 33 33 35 36 38 38 36 35 35 36 36 35 32 28 22 17 7 353 338 325 318 316 316 315 311 303 292 281 276 273 266 259 253 244 242 250 253 248 242 241 242 242 242 241 239 237 236 235 236 237 235 233 231
117 115 112 110 107 100 95 92 88 82 74 64 57 64 74 75 73 66 51 34 27 35 45 50 48 43 43 45 42 36 36 36 33 32 31 30 33 34 33 32 33 35 35 34 32 30 27 23 18 12 2 348 337 329 323 317 313 309 303 292 280 273 266 260 254 245 240 246 254 254 248 244 241 239 239 239 237 235 236 238 240 242 239 235 233
121 118 116 112 106 98 91 87 84 81 78 68 58 61 71 73 66 56 44 32 36 47 50 48 47 47 47 45 42 39 37 35 33 31 29 28 29 30 29 28 28 31 33 32 31 30 28 25 21 17 12 6 358 347 335 324 316 312 308 300 288 276 268 264 259 252 243 240 247 254 253 249 243 239 238 240 239 238 240 241 242 243 240 238 238
124 121 115 108 102 100 95 88 83 84 87 81 71 70 75 75 66 53 42 38 46 54 52 46 44 45 46 45 44 42 38 35 34 32 29 29 29 28 25 21 21 23 27 29 29 28 27 26 23 19 15 12 9 4 355 342 329 320 313 306 298 285 274 269 264 256 247 241 245 251 254 253 248 244 243 243 241 238 237 238 239 241 242 242 243
124 117 109 102 102 106 106 101 92 89 92 88 81 80 77 70 60 50 45 45 51 57 54 46 41 41 43 44 45 43 40 36 33 31 31 31 30 28 24 19 17 18 20 23 24 23 23 23 22 20 17 14 12 8 4 359 351 341 330 318 307 294 283 276 271 262 250 241 243 247 250 251 249 248 247 244 240 236 234 235 238 240 241 241 242
117 112 107 106 109 110 113 113 100 95 100 94 84 80 71 58 51 46 44 46 52 58 56 48 44 43 43 43 43 42 39 36 32 33 36 35 30 26 23 20 19 19 19 20 21 20 19 19 19 19 16 15 13 10 6 4 3 359 352 341 326 314 303 291 280 269 252 240 242 248 251 251 249 248 245 241 238 235 234 236 237 238 237 236 237
117 114 109 109 110 107 109 114 107 102 105 96 87 83 72 58 49 45 45 49 54 57 56 52 50 49 46 44 45 42 36 31 30 32 39 41 36 29 23 20 21 22 22 22 23 22 19 18 17 17 16 15 13 11 7 5 6 7 5 0 352 341 334 316 284 268 254 243 243 249 255 256 254 250 243 239 238 237 235 234 234 233 233 232 231
118 115 110 107 105 101 97 100 104 105 104 99 94 90 82 70 58 51 51 54 57 58 58 57 53 51 50 50 48 43 35 31 32 34 36 40 39 33 24 21 23 25 24 23 25 26 24 21 19 18 18 16 13 12 10 8 7 9 10 11 8 0 349 327 293 271 262 252 244 246 253 256 253 247 238 235 239 239 232 228 227 227 229 229 227
114 111 107 103 98 93 87 83 86 91 98 103 101 96 90 81 71 64 60 60 60 61 62 56 48 49 55 54 48 43 39 37 38 40 39 38 39 37 32 30 30 30 28 27 29 32 30 27 24 22 20 18 16 14 12 11 11 9 11 15 16 16 13 356 329 288 269 257 241 240 251 255 250 240 233 234 236 234 227 224 225 226 229 229 226
113 109 104 101 98 94 90 86 81 79 86 95 97 100 97 87 80 76 73 69 67 65 59 50 45 50 56 53 46 43 40 37 38 43 45 44 44 42 40 39 37 35 35 34 34 36 35 33 30 25 22 21 20 18 15 14 14 13 12 13 12 13 18 22 22 7 318 273 239 238 250 251 243 229 221 225 226 223 226 231 228 226 229 230 228
108 105 102 102 101 99 98 96 88 84 85 81 77 84 93 92 86 80 75 72 70 65 56 50 49 52 51 49 47 42 38 36 38 41 43 43 43 43 41 39 38 37 37 37 37 37 37 37 34 30 26 22 22 22 20 17 16 16 16 16 13 11 14 18 21 20 14 10 359 277 260 250 237 213 197 201 212 219 231 236 230 227 230 231 231
111 110 109 108 105 100 96 93 91 94 92 78 70 73 79 83 83 78 73 70 69 66 62 57 54 52 49 50 50 44 39 39 39 38 40 40 40 41 40 39 38 37 36 38 38 37 37 38 38 35 32 27 24 24 23 22 21 21 20 20 21 21 16 13 12 11 13 19 29 43 15 230 213 195 185 189 209 228 230 230 236 238 231 229 233
119 116 114 113 108 102 98 95 95 99 93 78 72 75 77 76 73 72 71 72 70 67 65 61 56 54 51 50 49 45 42 42 39 37 38 39 39 39 38 37 37 37 36 37 37 36 35 36 38 38 37 34 30 26 25 25 27 27 26 24 24 23 20 16 18 20 22 24 26 10 313 238 212 210 202 195 205 222 215 212 247 248 231 226 229
122 117 115 116 111 105 102 99 97 98 92 81 78 81 81 76 71 68 70 76 75 67 64 62 57 53 52 48 46 46 45 44 41 38 37 38 38 37 36 35 35 35 36 36 36 35 34 33 34 36 38 37 36 33 30 28 28 30 31 31 29 26 24 24 30 37 42 47 54 51 4 282 247 228 204 190 189 195 189 182 221 241 237 226 220
122 118 117 117 114 108 104 101 99 97 90 86 88 88 82 73 68 68 70 75 78 70 64 63 58 52 50 47 44 43 43 43 41 38 37 38 38 37 35 34 33 33 34 35 35 34 33 31 31 32 34 36 37 36 35 34 31 31 33 34 34 32 29 28 33 37 39 43 60 77 85 135 193 179 175 174 170 171 179 179 186 211 234 232 222
124 121 120 118 114 110 106 102 99 91 83 90 98 89 77 69 68 72 74 73 73 72 67 62 55 48 45 44 42 40 39 40 39 37 38 39 37 36 34 32 32 32 32 33 33 33 32 31 30 30 31 32 34 36 37 37 36 35 34 36 39 41 39 37 37 37 36 36 47 74 98 122 140 142 146 152 154 159 172 176 174 188 209 216 213
127 123 122 120 114 111 106 102 101 91 84 96 99 79 68 68 69 73 77 73 68 68 66 63 57 48 43 43 41 38 37 40 39 37 38 39 37 36 34 32 32 32 31 31 31 32 32 31 30 30 29 28 30 33 35 36 37 36 36 37 41 46 49 49 47 45 43 41 44 59 85 103 118 123 123 129 139 149 159 166 168 173 182 189 192
128 123 123 120 114 112 108 104 106 99 91 97 96 78 70 73 71 73 80 74 64 62 63 62 57 50 45 43 40 37 39 43 41 38 38 39 38 36 34 32 32 32 31 30 29 30 30 30 28 28 28 28 28 30 32 33 34 35 37 39 42 44 47 51 52 48 46 49 51 56 68 81 94 103 104 108 118 131 143 150 153 154 157 162 166
130 126 125 122 117 114 109 105 107 104 94 94 94 87 85 84 79 83 90 77 62 59 61 61 58 55 50 44 40 38 40 44 42 38 38 38 37 35 34 33 33 33 32 30 29 29 29 28 26 26 26 27 27 28 29 30 31 33 35 39 43 43 41 42 42 37 34 43 54 62 69 75 81 87 90 92 96 104 115 124 128 130 132 134 139
132 128 126 121 116 113 109 103 102 100 94 87 85 87 91 89 86 90 94 85 70 64 63 64 64 64 58 47 41 39 41 44 41 36 36 38 37 36 35 34 34 34 33 31 28 28 28 27 26 25 25 25 26 28 31 29 29 31 34 36 40 42 41 41 42 40 39 44 51 56 60 61 65 70 75 78 81 88 98 108 114 116 118 121 125
133 130 127 123 118 116 114 109 104 101 98 93 89 87 84 79 81 87 86 83 82 77 71 66 61 57 55 53 49 46 45 44 39 35 35 37 38 37 35 35 35 34 33 31 28 26 26 26 26 25 26 26 26 27 31 32 30 31 34 35 37 39 39 41 42 42 45 48 48 48 48 48 50 55 60 63 65 71 79 89 98 104 106 109 114
137 133 132 132 128 123 119 117 115 112 107 102 97 93 84 73 68 66 63 69 84 88 76 67 59 53 54 57 55 50 49 46 40 38 38 38 39 38 35 35 35 32 31 30 27 25 25 26 26 24 25 27 26 23 26 32 33 31 31 33 33 35 38 39 37 37 42 47 47 47 46 46 46 47 50 52 53 55 61 67 75 84 87 90 97